SB KEPS @ AMSAT $ORB10328.O Orbital Elements 10328.OSCAR
HR AMSAT ORBITAL ELEMENTS FOR OSCAR SATELLITES FROM WA5QGD FORT WORTH,TX November 24, 2010 BID: ORB10328.O TO ALL RADIO AMATEURS BT
Satellite: AO-07 Catalog number: 07530 Epoch time: 10327.89485885 Element set: 0936 Inclination: 101.3972 deg RA of node: 337.5376 deg Eccentricity: 0.0011788 Arg of perigee: 322.1168 deg Mean anomaly: 037.9073 deg Mean motion: 12.53580253 rev/day Decay rate: -2.7e-07 rev/day^2 Epoch rev: 64846 Checksum: 325
Satellite: FO-29 Catalog number: 24278 Epoch time: 10327.91500612 Element set: 0464 Inclination: 098.5186 deg RA of node: 135.0181 deg Eccentricity: 0.0351445 Arg of perigee: 069.5251 deg Mean anomaly: 294.3260 deg Mean motion: 13.52954595 rev/day Decay rate: -1.3e-07 rev/day^2 Epoch rev: 70470 Checksum: 299
Satellite: SO-33 Catalog number: 25509 Epoch time: 10326.42688153 Element set: 0843 Inclination: 031.4351 deg RA of node: 333.6565 deg Eccentricity: 0.0354238 Arg of perigee: 233.4923 deg Mean anomaly: 123.2602 deg Mean motion: 14.28339239 rev/day Decay rate: 2.0e-08 rev/day^2 Epoch rev: 63069 Checksum: 288
Satellite: RS-22 Catalog number: 27939 Epoch time: 10328.18434683 Element set: 751 Inclination: 097.8679 deg RA of node: 186.6740 deg Eccentricity: 0.0012504 Arg of perigee: 275.1789 deg Mean anomaly: 084.7971 deg Mean motion: 14.63480625 rev/day Decay rate: 1.85e-06 rev/day^2 Epoch rev: 38235 Checksum: 347
Satellite: VO-52 Catalog number: 28650 Epoch time: 10327.90172861 Element set: 0655 Inclination: 097.6723 deg RA of node: 014.9272 deg Eccentricity: 0.0028210 Arg of perigee: 113.2249 deg Mean anomaly: 247.1979 deg Mean motion: 14.81858077 rev/day Decay rate: 4.10e-06 rev/day^2 Epoch rev: 30034 Checksum: 298
Satellite: SO-67 Catalog number: 35870 Epoch time: 10328.04254510 Element set: 315 Inclination: 097.3116 deg RA of node: 012.7763 deg Eccentricity: 0.0001333 Arg of perigee: 251.4644 deg Mean anomaly: 197.9200 deg Mean motion: 15.21200028 rev/day Decay rate: 1.083e-05 rev/day^2 Epoch rev: 6575 Checksum: 262
Satellite: HO-68 Catalog number: 36122 Epoch time: 10328.16917970 Element set: 873 Inclination: 100.4492 deg RA of node: 026.8270 deg Eccentricity: 0.0007402 Arg of perigee: 335.0933 deg Mean anomaly: 024.9817 deg Mean motion: 13.16282742 rev/day Decay rate: -4.5e-07 rev/day^2 Epoch rev: 4526 Checksum: 289
/EX SB KEPS @ AMSAT $ORB10328.D Orbital Elements 10328.MICROS
HR AMSAT ORBITAL ELEMENTS FOR THE MICROSATS FROM WA5QGD FORT WORTH,TX November 24, 2010 BID: ORB10328.D TO ALL RADIO AMATEURS BT
Satellite: UO-11 Catalog number: 14781 Epoch time: 10327.73189187 Element set: 0401 Inclination: 098.0345 deg RA of node: 019.7697 deg Eccentricity: 0.0010176 Arg of perigee: 083.9534 deg Mean anomaly: 276.2833 deg Mean motion: 14.79863362 rev/day Decay rate: 4.71e-06 rev/day^2 Epoch rev: 43540 Checksum: 318
Satellite: AO-16 Catalog number: 20439 Epoch time: 10327.86205807 Element set: 0052 Inclination: 098.3555 deg RA of node: 279.6621 deg Eccentricity: 0.0011821 Arg of perigee: 054.8824 deg Mean anomaly: 305.3467 deg Mean motion: 14.31884432 rev/day Decay rate: 3.2e-07 rev/day^2 Epoch rev: 08823 Checksum: 296
Satellite: LO-19 Catalog number: 20442 Epoch time: 10327.83425363 Element set: 960 Inclination: 098.3181 deg RA of node: 284.7967 deg Eccentricity: 0.0012669 Arg of perigee: 049.7956 deg Mean anomaly: 310.4350 deg Mean motion: 14.32113195 rev/day Decay rate: -6.0e-08 rev/day^2 Epoch rev: 8840 Checksum: 306
Satellite: AO-27 Catalog number: 22825 Epoch time: 10327.83226848 Element set: 0683 Inclination: 098.5062 deg RA of node: 271.7998 deg Eccentricity: 0.0008630 Arg of perigee: 154.0368 deg Mean anomaly: 206.1247 deg Mean motion: 14.29316736 rev/day Decay rate: -3.2e-07 rev/day^2 Epoch rev: 89485 Checksum: 331
Satellite: IO-26 Catalog number: 22826 Epoch time: 10327.65907085 Element set: 0421 Inclination: 098.4997 deg RA of node: 272.1747 deg Eccentricity: 0.0009330 Arg of perigee: 149.8880 deg Mean anomaly: 210.2838 deg Mean motion: 14.29575256 rev/day Decay rate: 2.4e-07 rev/day^2 Epoch rev: 89494 Checksum: 338
Satellite: GO-32 Catalog number: 25397 Epoch time: 10327.55299491 Element set: 339 Inclination: 098.3163 deg RA of node: 326.2570 deg Eccentricity: 0.0001874 Arg of perigee: 127.3099 deg Mean anomaly: 232.8274 deg Mean motion: 14.23190291 rev/day Decay rate: 1.3e-07 rev/day^2 Epoch rev: 64271 Checksum: 304
Satellite: NO-44 Catalog number: 26931 Epoch time: 10327.57296607 Element set: 0615 Inclination: 067.0498 deg RA of node: 153.3182 deg Eccentricity: 0.0005844 Arg of perigee: 273.3374 deg Mean anomaly: 086.7048 deg Mean motion: 14.29622336 rev/day Decay rate: -3.1e-07 rev/day^2 Epoch rev: 47753 Checksum: 316
Satellite: SO-50 Catalog number: 27607 Epoch time: 10327.91373191 Element set: 0326 Inclination: 064.5589 deg RA of node: 231.3384 deg Eccentricity: 0.0048528 Arg of perigee: 013.4249 deg Mean anomaly: 346.8100 deg Mean motion: 14.71610392 rev/day Decay rate: 1.74e-06 rev/day^2 Epoch rev: 42588 Checksum: 301
Satellite: CO-55 Catalog number: 27844 Epoch time: 10327.53989407 Element set: 984 Inclination: 098.7094 deg RA of node: 334.2328 deg Eccentricity: 0.0010597 Arg of perigee: 072.2690 deg Mean anomaly: 287.9646 deg Mean motion: 14.20748882 rev/day Decay rate: 1.43e-06 rev/day^2 Epoch rev: 38371 Checksum: 350
Satellite: CO-57 Catalog number: 27848 Epoch time: 10327.52248466 Element set: 0934 Inclination: 098.7142 deg RA of node: 333.3430 deg Eccentricity: 0.0010501 Arg of perigee: 076.1773 deg Mean anomaly: 284.0556 deg Mean motion: 14.20536903 rev/day Decay rate: 1.08e-06 rev/day^2 Epoch rev: 38366 Checksum: 303
Satellite: AO-51 Catalog number: 28375 Epoch time: 10327.95639905 Element set: 0831 Inclination: 098.0755 deg RA of node: 312.4781 deg Eccentricity: 0.0084298 Arg of perigee: 333.3472 deg Mean anomaly: 026.3398 deg Mean motion: 14.40711585 rev/day Decay rate: 6.8e-07 rev/day^2 Epoch rev: 33651 Checksum: 328
Satellite: CP3 Catalog number: 31129 Epoch time: 10327.57515300 Element set: 0731 Inclination: 097.9224 deg RA of node: 358.4751 deg Eccentricity: 0.0103465 Arg of perigee: 099.4149 deg Mean anomaly: 261.8751 deg Mean motion: 14.52338417 rev/day Decay rate: 1.8e-07 rev/day^2 Epoch rev: 19099 Checksum: 305
Satellite: CO-65 Catalog number: 32785 Epoch time: 10327.33455683 Element set: 0845 Inclination: 097.8785 deg RA of node: 029.8998 deg Eccentricity: 0.0015785 Arg of perigee: 124.4048 deg Mean anomaly: 235.8670 deg Mean motion: 14.81770125 rev/day Decay rate: 2.28e-06 rev/day^2 Epoch rev: 13905 Checksum: 348
Satellite: KKS-1 Catalog number: 33493 Epoch time: 10328.03027986 Element set: 65 Inclination: 098.1027 deg RA of node: 089.0740 deg Eccentricity: 0.0019496 Arg of perigee: 347.9806 deg Mean anomaly: 012.0913 deg Mean motion: 14.81212096 rev/day Decay rate: 7.57e-06 rev/day^2 Epoch rev: 9914 Checksum: 306
Satellite: SOHLA-1 Catalog number: 33496 Epoch time: 10327.83333159 Element set: 0263 Inclination: 098.0706 deg RA of node: 074.9448 deg Eccentricity: 0.0007570 Arg of perigee: 060.5549 deg Mean anomaly: 299.6407 deg Mean motion: 14.69535900 rev/day Decay rate: 1.33e-06 rev/day^2 Epoch rev: 09832 Checksum: 317
Satellite: TISAT-1 Catalog number: 36799 Epoch time: 10328.33558963 Element set: 340 Inclination: 098.1308 deg RA of node: 029.3321 deg Eccentricity: 0.0014772 Arg of perigee: 214.5941 deg Mean anomaly: 145.4327 deg Mean motion: 14.80241360 rev/day Decay rate: 5.38e-06 rev/day^2 Epoch rev: 2000 Checksum: 277
Satellite: STUDSAT Catalog number: 36801 Epoch time: 10327.90917001 Element set: 0101 Inclination: 098.1333 deg RA of node: 028.7889 deg Eccentricity: 0.0013470 Arg of perigee: 205.6161 deg Mean anomaly: 154.4379 deg Mean motion: 14.79827585 rev/day Decay rate: 1.496e-05 rev/day^2 Epoch rev: 01993 Checksum: 304
/EX SB KEPS @ AMSAT $ORB10328.W Orbital Elements 10328.WEATHER
HR AMSAT ORBITAL ELEMENTS FOR WEATHER SATELLITES FROM WA5QGD FORT WORTH,TX November 24, 2010 BID: ORB10328.W TO ALL RADIO AMATEURS BT
Satellite: NOAA-10 Catalog number: 16969 Epoch time: 10327.62142431 Element set: 0284 Inclination: 098.6415 deg RA of node: 354.9771 deg Eccentricity: 0.0013017 Arg of perigee: 104.5831 deg Mean anomaly: 255.6808 deg Mean motion: 14.27435027 rev/day Decay rate: 1.2e-07 rev/day^2 Epoch rev: 25832 Checksum: 288
Satellite: NOAA-11 Catalog number: 19531 Epoch time: 10327.70087695 Element set: 0294 Inclination: 098.7657 deg RA of node: 053.9740 deg Eccentricity: 0.0012212 Arg of perigee: 055.3149 deg Mean anomaly: 304.9182 deg Mean motion: 14.14943317 rev/day Decay rate: -1.6e-07 rev/day^2 Epoch rev: 14369 Checksum: 302
Satellite: NOAA-12 Catalog number: 21263 Epoch time: 10327.80687379 Element set: 0787 Inclination: 098.7613 deg RA of node: 340.9197 deg Eccentricity: 0.0013321 Arg of perigee: 064.7765 deg Mean anomaly: 295.4788 deg Mean motion: 14.25669363 rev/day Decay rate: 9.5e-07 rev/day^2 Epoch rev: 01514 Checksum: 336
Satellite: MET-3/5 Catalog number: 21655 Epoch time: 10327.86661151 Element set: 971 Inclination: 082.5574 deg RA of node: 195.8194 deg Eccentricity: 0.0012804 Arg of perigee: 314.2253 deg Mean anomaly: 045.7784 deg Mean motion: 13.17023623 rev/day Decay rate: 5.1e-07 rev/day^2 Epoch rev: 92669 Checksum: 306
Satellite: MET-2/21 Catalog number: 22782 Epoch time: 10327.88726832 Element set: 0946 Inclination: 082.5446 deg RA of node: 125.7612 deg Eccentricity: 0.0021338 Arg of perigee: 317.6244 deg Mean anomaly: 042.3276 deg Mean motion: 13.83650529 rev/day Decay rate: 7.7e-07 rev/day^2 Epoch rev: 87016 Checksum: 312
Satellite: OKEAN-4 Catalog number: 23317 Epoch time: 10327.84207882 Element set: 401 Inclination: 082.5417 deg RA of node: 204.8333 deg Eccentricity: 0.0023863 Arg of perigee: 076.4640 deg Mean anomaly: 283.9244 deg Mean motion: 14.82898707 rev/day Decay rate: 3.29e-06 rev/day^2 Epoch rev: 87011 Checksum: 303
